COSMOS 2251 DEB, 37312

Orbit data source: Space-Track

COSMOS 2251 DEB, 37312 is space debris in LEO originally from a launch on Wed, 16 Jun 1993 UTC launched from the Plesetsk Missile And Space Complex (PKMTR). The debris from Iridium 33, an American commercial communications satellite, has been tracked extensively since its accidental collision with the defunct Russian satellite Cosmos 2251 in 2009. This event, occurring at high speed in low Earth orbit (LEO), generated thousands of pieces of space debris, significantly increasing the risk of further collisions. The Iridium 33 debris cloud has impacted space traffic management and orbital debris mitigation strategies, making it a subject of ongoing study in space situational awareness.

Loading next visibility...
Identifier
37312, 1993-036BKC
Orbit
LEO
Country
Flag of CISCIS
Related business
Manufacturer
Unknown
Mission
Spacecraft
Bus & Motor
Unknown
Mass
Unknown
Launch date (UTC)
1993-06-16 (33 years ago)
Launch vehicle
Unknown
Launch site
Plesetsk Missile And Space Complex (PKMTR)
Object type
Payload
Rocket body
Debris
Shape & HBR
Unknown shape, 0.1 m
Radar Cross Section
Medium (>0.1 m² and <1 m²)

Expand to show TLE details & history
Last TLE update: 1 day ago

TLE from 1 day ago
0 COSMOS 2251 DEB
1 37312U 93036BKC 26262.74081147  .00000808  00000-0  22958-3 0  9992
2 37312  74.0318  39.2549 0017138  74.6036 285.7015 14.46912596902274
Epoch: 2026-09-19T17:46Z
TLE epoch observation values (Epoch: 2026-09-19T17:46:46.111Z)
Latitude
0.00005°
Longitude
133.91778°
Altitude
735.094 km
Speed
7.489 km/s
True Right ascension
02h 37m 01s
True Declination
0° 00' 00"
Sunlit
Object was in full shadow at epoch
Visualization orbit readout
Latitude
Unknown
Longitude
Unknown
Altitude
Unknown
Speed
Unknown
Apparent Right ascension
Unknown
Apparent Declination
Unknown
Sunlit
N/A
Visualization observer readout
Local Sidereal Time
10:29:41
Azimuth
Unknown
Elevation
Unknown
Doppler factor
Unknown
Orbital elements
Apogee altitude
745.55 km
Perigee altitude
721.175 km
Semi-major axis
7,111.5 km
Eccentricity
0.00171
Inclination
74.0318°
RAAN
39.2549°
Arg. of periapsis
74.6036°
True anomaly
285.51233°
Mean anomaly
285.7015°
Eccentric anomaly
285.60693°
Mean motion
3.61911 °/min
Orbital period
99.47 mins
BSTAR
0.00022958
Loading maneuver chart data...
Computing Atmospheric mass density...

Documentation

Showing up to 5 results
|